Skip Page Navigation
NASA JPL Caltech
NASA Logo - Jet Propulsion Laboratory + View the NASA Portal
+ Center for Near-Earth Object Studies
JPL Home Earth Solar System Stars & Galaxies Technology
JPL Solar System Dynamics
BODIES ORBITS EPHEMERIDES TOOLS PHYSICAL DATA DISCOVERY FAQ SITE MAP
JPL Small-Body Database Browser
Search: [ help ]  
175397 (2006 OS6)
Classification: Main-belt Asteroid          SPK-ID: 2175397
Ephemeris | Orbit Diagram | Orbital Elements | Mission Design | Physical Parameters | Discovery Circumstances | Close-Approach Data ]

[ show orbit diagram ]
Orbital Elements at Epoch 2459200.5 (2020-Dec-17.0) TDB
Reference: JPL 20 (heliocentric ecliptic J2000)
 Element Value Uncertainty (1-sigma)   Units 
e .148866146299796 5.1826e-08  
a 2.634997312841632 1.9085e-08 au
q 2.24273541736858 1.3585e-07 au
i 11.01545270661137 5.5295e-06 deg
node 11.75577126550708 2.4832e-05 deg
peri 298.6903396278695 3.1178e-05 deg
M 179.1045393087963 2.3358e-05 deg
tp 2458423.228428057757
(2018-Oct-31.72842806)
9.6742e-05 TDB
period 1562.315321426724
4.28
1.6973e-05
4.647e-08
d
yr
n .230427235182744 2.5034e-09 deg/d
Q 3.027259208314684 2.1926e-08 au
  Orbit Determination Parameters
   # obs. used (total)      462  
   data-arc span      6664 days (18.25 yr)  
   first obs. used      2002-12-12  
   last obs. used      2021-03-11  
   planetary ephem.      DE441  
   SB-pert. ephem.      SB441-N16  
   condition code      0  
   norm. resid. RMS      .48987  
   source      ORB  
   producer      Otto Matic  
   solution date      2021-Apr-13 21:05:13  

Additional Information
 Earth MOID = 1.25173 au 
 Jupiter MOID = 2.34727 au 
 T_jup = 3.356 
[ show covariance matrix ]

Ephemeris | Orbit Diagram | Orbital Elements | Mission Design | Physical Parameters | Discovery Circumstances | Close-Approach Data ]

Physical Parameter Table
Parameter Symbol Value Units Sigma Reference Notes
absolute magnitude H 15.6   n/a MPO266544  
diameter diameter 2.064 km 0.442 urn:nasa:pds:neowise_diameters_albedos::2.0[mainbelt] (http://adsabs.harvard.edu/abs/2011ApJ...741...68M)  
geometric albedo albedo 0.262   0.174 urn:nasa:pds:neowise_diameters_albedos::2.0[mainbelt] (http://adsabs.harvard.edu/abs/2011ApJ...741...68M)  

175397 (2006 OS6)          Discovered 2006-Jul-21 by Mt. Lemmon Survey at Mount Lemmon
Reference: 20080122/Numbers.arcLast Updated: 2008-01-28

[ show close-approach data ]
Ephemeris | Orbit Diagram | Orbital Elements | Mission Design | Physical Parameters | Discovery Circumstances | Close-Approach Data ]
ABOUT SSD CREDITS/AWARDS PRIVACY/COPYRIGHT GLOSSARY LINKS
FirstGov 2021-Apr-15 14:21 UT
(server date/time)  
NASA Home Page
Site Manager:   Ryan S. Park
Webmaster  Alan B. Chamberlin